Flag for United Kingdom

Past Weather in Penzance, England, United Kingdom — Yesterday and Last 2 Weeks

Now
57 °F

Dense fog.


Feels Like: 54 °F
Forecast: 62 / 60 °F
Wind: 14 mph from Southwest

Location: Culdrose

Current Time: Jul 8, 2020 at 3:24:50 am

Latest Report: Jul 8, 2020 at 1:50 am


Visibility: 0 mi

Pressure: 30.07 "Hg

Humidity: 100%

Dew Point: 57 °F

Location of PenzanceLocation

Past Weather in Penzance — Graph

°F

Penzance Temperature Yesterday

Maximum temperature yesterday: 61 °F (at 12:50 pm)
Minimum temperature yesterday: 50 °F (at 2:50 am)
Average temperature yesterday: 57 °F

High & Low Weather Summary for the Past Weeks

 TemperatureHumidityPressure
High75 °F (Jun 24, 2:50 pm)100% (Jun 23, 3:50 am)30.30 "Hg (Jun 23, 3:50 am)
Low50 °F (Jul 7, 2:50 am)50% (Jun 24, 6:50 pm)29.56 "Hg (Jun 27, 5:50 am)
Average60 °F85%29.96 "Hg
* Reported Jun 23 1:50 am — Jul 8 1:50 am, Penzance. Weather by CustomWeather, © 2020

Note: Actual official high and low records may vary slightly from our data, if they occured in-between our weather recording intervals... More about our weather records

Penzance Weather History for the Previous 24 Hours

Scroll right to see more
 ConditionsComfort  
Time TempWeatherWind HumidityBarometerVisibility
1:50 am
Wed, Jul 8
57 °FDense fog.14 mph100%30.07 "Hg0 mi
12:50 am57 °FDense fog.12 mph100%30.09 "Hg0 mi
11:50 pm
Tue, Jul 7
57 °FDense fog.14 mph100%30.09 "Hg0 mi
10:50 pm57 °FDrizzle. Low clouds.10 mph100%30.09 "Hg2 mi
10:27 pm57 °FDrizzle. Low clouds.8 mph94%30.09 "Hg4 mi
10:14 pm57 °FDrizzle. Low clouds.9 mph94%30.09 "Hg4 mi
9:50 pm57 °FDrizzle. Mostly cloudy.12 mph94%30.09 "Hg5 mi
9:21 pm57 °FPartly sunny.12 mph94%30.09 "HgN/A
8:50 pm57 °FBroken clouds.12 mph94%30.09 "HgN/A
8:25 pm57 °FBroken clouds.12 mph94%30.12 "HgN/A
7:50 pm57 °FBroken clouds.12 mph94%30.12 "HgN/A
7:23 pm57 °FBroken clouds.12 mph94%30.12 "HgN/A
6:50 pm59 °FBroken clouds.13 mph88%30.12 "HgN/A
6:19 pm59 °FBroken clouds.13 mph82%30.15 "HgN/A
5:50 pm59 °FBroken clouds.13 mph88%30.15 "HgN/A
5:23 pm59 °FBroken clouds.12 mph88%30.15 "HgN/A
4:50 pm59 °FBroken clouds.16 mph82%30.15 "HgN/A
4:28 pm59 °FPartly sunny.14 mph88%30.15 "HgN/A
3:50 pm59 °FPartly sunny.21 mph88%30.18 "HgN/A
3:21 pm59 °FPartly sunny.17 mph82%30.18 "HgN/A
2:50 pm61 °FScattered clouds.16 mph83%30.18 "HgN/A
2:20 pm61 °FScattered clouds.14 mph83%30.18 "HgN/A
1:50 pm59 °FPartly sunny.17 mph82%30.18 "HgN/A
1:21 pm61 °FBroken clouds.13 mph83%30.18 "HgN/A
12:50 pm61 °FBroken clouds.13 mph77%30.18 "HgN/A
12:19 pm59 °FBroken clouds.12 mph82%30.21 "HgN/A
11:50 am59 °FScattered clouds.12 mph82%30.21 "HgN/A
11:27 am59 °FPartly sunny.13 mph77%30.21 "HgN/A
10:50 am59 °FPartly sunny.12 mph82%30.21 "HgN/A
10:25 am57 °FPartly sunny.10 mph82%30.21 "HgN/A
9:50 am57 °FPartly sunny.10 mph82%30.21 "HgN/A
9:27 am57 °FPartly sunny.10 mph82%30.21 "HgN/A
8:50 am57 °FPartly sunny.8 mph82%30.21 "HgN/A
8:20 am55 °FPartly sunny.6 mph94%30.21 "HgN/A
7:20 am55 °FPassing clouds.6 mph88%30.21 "HgN/A
6:50 am52 °FPassing clouds.5 mph94%30.21 "HgN/A
6:22 am52 °FPassing clouds.5 mph94%30.21 "HgN/A
5:50 am50 °FSunny.7 mph94%30.21 "HgN/A
4:50 am52 °FClear.6 mph94%30.24 "HgN/A
3:50 am52 °FClear.3 mph94%30.24 "HgN/A
Weather by CustomWeather, © 2020

See weather overview